カタログに戻る

USA 170

運用中軍事GEO
NORAD 27875·PAYLOAD·🇺🇸 United States

打ち上げ Aug 29, 2003 から Cape Canaveral Space Force Station

Loading…

TLE

最新Source: Space-Track

元期: Sep 14, 2026, 13:55 UTC

1 27875U 03040A   26257.57986770  .00000119  00000-0  00000+0 0  9997
2 27875  10.6864  47.0748 0001507 158.9126  20.4350  1.00270982 33897

AllMySatでUSA 170をリアルタイム追跡

Download on the App Store